Location: Driftpile
(55.3500°N, 115.7667°W)
Time: 01:38:16
(UTC+00:00)

ISS - Pass Details

Date: 05 December 2021
Orbit: 413 x 422 km, 51.6° (Epoch: 24 January)

Event Time Altitude Azimuth Distance (km) Brightness Sun altitude
Rises 02:10:03 0° 273° (W) 2,385 1.5 -23.4°
Reaches altitude 10° 02:12:59 10° 246° (WSW) 1,513 0.0 -23.8°
Maximum altitude 02:14:42 13° 215° (SW) 1,323 -0.8 -24.0°
Enters shadow 02:15:55 11° 193° (SSW) 1,421 -0.9 -24.2°
